星链-31120 (STARLINK-31120 )

导读

STARLINK-31120是美国SpaceX星链互联网卫星星座的成员,于2024年1月14日发射入轨。星链星座通过大规模低轨卫星组网,为全球提供高速互联网接入服务,尤其服务偏远地区和移动场景,这颗卫星承担着补充星座容量、提升服务覆盖与稳定性的角色,延续了星链持续扩容部署的节奏。

Basic Information
目录编号:
58778
目录名称:
STARLINK-31120
国际标识:
2024-011P
轨道中心:
EARTH
卫星名称:
星链-31120
卫星全名:
星链-31120 (STARLINK-31120 )
卫星状态:
在轨 (已飞行971 天)
发射日期:
2024-01-14 UTC
国别 :
美国 (US)
星等 :
--
This satellite is enrolled in the Space Conjunction Data Service (SCDS) and the current flight risk assessment level is: No High Risk
Orbit Information
数据来源 国际轨道数据 AOE轨道数据
星历时间 2026-09-09T06:29:11+0800
2天前
查看轨道信息
2026-09-09T22:00:00+0800
2天前
查看轨道信息
半长轴 6840.836km 6840.835km
偏心率 0.000122 0.0001168
轨道倾角 53.159° 53.156°
近地点辐角 82.704° 92.494°
升交点赤经 239.852° 236.833°
平近点角 277.411° 240.272°
近地点 461.864km 461.898km
远地点 463.534km 463.498km
周期 93.848分钟 93.848分钟
每日圈数 15.344015 15.344019
Detailed Information
固有亮度:
5
最大亮度:
0.3
卫星平台:
Starlink v2.0 mini
覆盖范围:
全球
运营商:
太空探索技术公司
运营商所在国:
美国
制造商(研发单位):
太空探索技术公司
制造商所在国:
美国
使用方式:
暂无
Satellite Introduction
星链(Starlink)计划是由太空探索技术公司(SpaceX)提出的一个巨型低轨卫星互联网星座项目,计划在2019年至2024年间在太空搭建由约1.2万颗卫星组成的“星链”网络,其中1584颗将部署在地球上空550千米处的近地轨道,并从2020年开始工作。该卫星仍在工作。
2D Orbit Map
3D Orbit Map
Orbit Altitude Analysis Chart
Orbit Inclination Analysis Chart
Orbit Comprehensive Analysis Chart
View Comprehensive Chart
Miss Distance Evolution Trend with All Objects
Collision Probability Evolution Trend with All Objects